カタログに戻る

SL-8 DEB

運用中PO
NORAD 43336·DEBRIS·🇷🇺 Russia

打ち上げ Apr 4, 1989 から Plesetsk Cosmodrome

Loading…

次のパス (今後24時間)

TLE

最新Source: Space-Track

元期: Sep 13, 2026, 01:57 UTC

1 43336U 89050C   26256.08158467  .00000336  00000-0  30486-3 0  9997
2 43336  82.9569 181.4956 0044824  72.1487 288.4554 13.80203520561748

AllMySatでSL-8 DEBをリアルタイム追跡

Download on the App Store